User: anonymous   Login
Location: Darlington Observatory
(36.4817°N, 105.8156°W)
Time: 14:43:41
(UTC-06:00)
Language:

MOS 1 - Orbit

View from above orbital plane
View from above orbital plane
View from above satellite
View from above satellite

Ground track
Ground track

The orbit data is extracted from the following two-line orbital elements,

1 17527U 87018A   15185.53408527 -.00000243  00000-0 -12826-3 0  9993
2 17527 099.2504 176.7858 0010026 092.4765 014.2354 14.02398189449424
Epoch (UTC): 04 July 2015 12:49:04
Eccentricity: 0.0010026
inclination: 99.2504°
perigee height: 878 km
apogee height: 893 km
right ascension of ascending node: 176.7858°
argument of perigee: 92.4765°
revolutions per day: 14.02398189
mean anomaly at epoch: 14.2354°
orbit number at epoch: 44942

The dashed part of the orbit path shows where the satellite is in the earth's shadow,  

DLR